GW0148 Weather Reports


time (UTC)temp
C
wind
direction
speed
KPH
gust
KPH
rain 1hr
cm
rain 24hr
cm
rain mn
cm
humidity
%
barometer
mb
20260504070342 9 163 0.0 0.0 0.00 0.00 0.00 67 1012.3
20260504050015 7 168 0.0 0.0 0.00 0.00 0.00 71 1013.1
20260504045026 7 168 0.0 0.0 0.00 0.00 0.00 71 1013.2
20260504044020 6 155 0.0 0.0 0.00 0.00 0.00 79 1013.0
20260504041909 6 175 0.0 0.0 0.00 0.00 0.00 77 1013.0
20260504040839 6 175 0.0 0.0 0.00 0.00 0.00 79 1012.9
20260504035825 7 171 0.0 0.0 0.00 0.00 0.00 78 1012.9
20260504034817 7 171 0.0 0.0 0.00 0.00 0.00 74 1012.9
20260504033827 7 171 0.0 0.0 0.00 0.00 0.00 74 1013.0
20260504032844 7 171 0.0 0.0 0.00 0.00 0.00 75 1013.0
20260504031812 7 171 0.0 0.0 0.00 0.00 0.00 75 1013.0
20260504025658 8 177 0.0 0.0 0.00 0.00 0.00 68 1013.2
20260504024706 8 171 0.0 0.0 0.00 0.00 0.00 65 1013.1
20260504023632 9 171 0.0 0.0 0.00 0.00 0.00 58 1013.2
20260504021551 10 171 0.0 0.0 0.00 0.00 0.00 54 1013.2
20260504020523 10 171 0.0 0.0 0.00 0.00 0.00 53 1013.2
20260504015531 10 171 0.0 0.0 0.00 0.00 0.00 54 1013.2
20260504014548 11 175 0.0 0.0 0.00 0.00 0.00 52 1013.2
20260504013554 11 171 0.0 0.0 0.00 0.00 0.00 51 1013.1
20260504012536 11 175 0.0 1.6 0.00 0.00 0.00 49 1013.2
20260504010438 11 159 0.0 3.2 0.00 0.00 0.00 50 1013.1
20260504005443 11 170 0.0 0.0 0.00 0.00 0.00 48 1013.0
20260504004411 12 185 0.0 0.0 0.00 0.00 0.00 47 1013.0
20260504003429 12 158 0.0 0.0 0.00 0.00 0.00 45 1012.9
20260504002409 13 198 0.0 4.8 0.00 0.00 0.00 44 1012.8
20260504001408 13 195 1.6 6.4 0.00 0.00 0.00 43 1012.8
20260504000432 13 153 1.6 4.8 0.00 0.00 0.00 42 1012.8
20260503233123 13 168 1.6 8.0 0.00 0.00 0.00 41 1013.0
20260503232142 14 210 1.6 14.5 0.00 0.00 0.00 40 1013.0
20260503230017 15 164 9.7 19.3 0.00 0.00 0.00 40 1013.0
20260503225019 15 192 4.8 14.5 0.00 0.00 0.00 40 1013.1
20260503224018 15 184 6.4 17.7 0.00 0.00 0.00 39 1013.2
20260503223016 15 195 8.0 17.7 0.00 0.00 0.00 39 1013.2
20260503222025 14 188 4.8 22.5 0.00 0.00 0.00 40 1013.3
20260503215855 15 167 6.4 20.9 0.00 0.00 0.00 39 1013.3
20260503214853 15 158 6.4 20.9 0.00 0.00 0.00 39 1013.2
20260503211601 15 188 4.8 24.1 0.00 0.00 0.00 39 1013.2
20260503210615 14 201 11.3 24.1 0.00 0.00 0.00 38 1013.2
20260503205545 15 170 11.3 22.5 0.00 0.00 0.00 38 1013.3
20260503202333 15 208 6.4 24.1 0.00 0.00 0.00 37 1013.7
20260503201309 15 269 8.0 24.1 0.00 0.00 0.00 38 1013.8
20260503200308 15 175 6.4 32.2 0.00 0.00 0.00 41 1013.9
20260503195330 15 212 11.3 32.2 0.00 0.00 0.00 39 1014.1
20260503194331 14 153 8.0 24.1 0.00 0.00 0.00 39 1014.1
20260503193352 14 205 8.0 25.7 0.00 0.00 0.00 40 1014.3
20260503192400 14 158 11.3 25.7 0.00 0.00 0.00 39 1014.2
20260503191335 14 195 8.0 27.4 0.00 0.00 0.00 40 1014.4
20260503190350 14 151 9.7 27.4 0.00 0.00 0.00 42 1014.7
20260503184156 14 260 8.0 29.0 0.00 0.00 0.00 40 1014.9
20260503183124 13 172 4.8 27.4 0.00 0.00 0.00 42 1015.0
20260503182141 13 227 9.7 27.4 0.00 0.00 0.00 43 1015.1
20260503181202 13 221 6.4 24.1 0.00 0.00 0.00 42 1015.2
20260503180206 13 227 9.7 24.1 0.00 0.00 0.00 43 1015.3
20260503175220 13 205 4.8 25.7 0.00 0.00 0.00 41 1015.5
20260503174225 13 212 9.7 25.7 0.00 0.00 0.00 40 1015.6
20260503173210 13 185 6.4 24.1 0.00 0.00 0.00 45 1015.5
20260503172231 13 202 8.0 20.9 0.00 0.00 0.00 41 1015.8
20260503150720 10 209 8.0 19.3 0.00 0.00 0.00 49 1016.9
20260503131235 7 215 3.2 9.7 0.00 0.00 0.00 68 1017.2
20260503120135 4 191 3.2 9.7 0.00 0.00 0.00 86 1017.0
20260503090327 2 162 0.0 0.0 0.00 0.00 0.00 91 1015.7
20260503081214 2 165 0.0 0.0 0.00 0.00 0.00 91 1015.6
20260503080225 2 188 0.0 0.0 0.00 0.00 0.00 90 1015.5
20260503072146 3 189 0.0 0.0 0.00 0.00 0.00 86 1015.3
20260503071128 3 160 0.0 0.0 0.00 0.00 0.00 84 1015.2